カタリナ-パンスターズ彗星

299P/Catalina-PanSTARRS (2024)

English version
Home page
Updated on June 4, 2024

---------------------------------------------------------------------

・ プロフィール

・ 写真集

・ 軌道要素

Epoch 2024 Mar. 31.0 TT = JDT 2460400.5
T 2024 Apr. 30.37319 TT                                 Rudenko
q   3.1563633            (2000.0)            P               Q
n   0.10716768     Peri.  323.69149     -0.55979766     +0.80848179
a   4.3896189      Node   271.58277     -0.71102477     -0.58122016
e   0.2809482      Incl.   10.46784     -0.42552362     -0.09241387
P   9.20
>From 400 observations 2005 Mar. 11-2024 Feb. 24, mean residual 0".7.

・ 光度変化

        m1 =  7.5 + 5 logΔ + 15.0 log r  [  ,20]  (              〜2024年 5月20日)
        m1 = -1.5 + 5 logΔ + 30   log r  [20,  ]  (2024年 5月20日〜              )

---------------------------------------------------------------------

軌道要素はM.P.E.C. 2024-D126に掲載されたものです。
光度グラフはComet for Windowsで作成したものです。

---------------------------------------------------------------------

Copyright(C) Seiichi Yoshida (comet@aerith.net). All rights reserved.